Zurück zum Katalog

ATLAS 5 CENTAUR DEB

AktivHEO
NORAD 49349·DEBRIS·🇺🇸 United States

Gestartet Oct 17, 2018 von Cape Canaveral Space Force Station

Loading…

Nächste Überflüge (nächste 24 Stunden)

TLE

AktuellSource: Space-Track

Epoche: Sep 5, 2026, 12:35 UTC

1 49349U 18079FA  26248.52469315 -.00000188  00000-0  00000+0 0  9998
2 49349  13.3710  27.8850 4655797 330.9519   9.5593  1.82932210 33543

Verfolge ATLAS 5 CENTAUR DEB in Echtzeit mit AllMySat

Download on the App Store